Time,TemperatureF,DewpointF,PressureIn,WindDirection,WindDirectionDegrees,WindSpeedMPH,WindSpeedGustMPH,Humidity,HourlyPrecipIn,Conditions,Clouds,dailyrainin,SolarRadiationWatts/m^2,SoftwareType,DateUTC
2013-05-15 00:01:00,49.0,46.0,-100.00,East,86,2.0,5.0,88,0.00,,,0.01,0.000000,,2013-05-15 07:01:00,
2013-05-15 00:11:00,49.0,46.0,-100.00,East,86,2.0,5.0,88,0.00,,,0.01,0.000000,,2013-05-15 07:11:00,
2013-05-15 00:21:00,49.0,46.0,-100.00,East,86,2.0,5.0,88,0.00,,,0.01,0.000000,,2013-05-15 07:21:00,
2013-05-15 00:31:00,49.0,46.0,-100.00,East,86,2.0,5.0,88,0.00,,,0.01,0.000000,,2013-05-15 07:31:00,
2013-05-15 00:52:00,48.0,45.0,-100.00,ESE,103,1.0,3.0,90,0.00,,,0.01,0.000000,,2013-05-15 07:52:00,
2013-05-15 01:02:00,48.0,45.0,-100.00,ESE,103,1.0,3.0,90,0.00,,,0.01,0.000000,,2013-05-15 08:02:00,
2013-05-15 01:12:00,48.0,45.0,-100.00,ESE,103,1.0,3.0,90,0.00,,,0.01,0.000000,,2013-05-15 08:12:00,
2013-05-15 01:21:00,48.0,45.0,-100.00,ESE,103,1.0,3.0,90,0.00,,,0.01,0.000000,,2013-05-15 08:21:00,
2013-05-15 01:31:00,48.0,45.0,-100.00,ESE,103,1.0,3.0,90,0.00,,,0.01,0.000000,,2013-05-15 08:31:00,
2013-05-15 01:53:00,48.0,45.0,-100.00,NNE,20,0.0,4.0,91,0.00,,,0.01,0.000000,,2013-05-15 08:53:00,
2013-05-15 02:01:00,48.0,45.0,-100.00,NNE,20,0.0,4.0,91,0.00,,,0.01,0.000000,,2013-05-15 09:01:00,
2013-05-15 02:11:00,48.0,45.0,-100.00,NNE,20,0.0,4.0,91,0.00,,,0.01,0.000000,,2013-05-15 09:11:00,
2013-05-15 02:21:00,48.0,45.0,-100.00,NNE,20,0.0,4.0,91,0.00,,,0.01,0.000000,,2013-05-15 09:21:00,
2013-05-15 02:32:00,48.0,45.0,-100.00,NNE,20,0.0,4.0,91,0.00,,,0.01,0.000000,,2013-05-15 09:32:00,
2013-05-15 02:53:00,48.0,46.0,-100.00,NNE,28,0.0,5.0,94,0.00,,,0.01,0.000000,,2013-05-15 09:53:00,
2013-05-15 03:02:00,48.0,46.0,-100.00,NNE,28,0.0,5.0,94,0.00,,,0.01,0.000000,,2013-05-15 10:02:00,
2013-05-15 03:12:00,48.0,46.0,-100.00,NNE,28,0.0,5.0,94,0.00,,,0.01,0.000000,,2013-05-15 10:12:00,
2013-05-15 03:22:00,48.0,46.0,-100.00,NNE,28,0.0,5.0,94,0.00,,,0.01,0.000000,,2013-05-15 10:22:00,
2013-05-15 03:32:00,48.0,46.0,-100.00,NNE,28,0.0,5.0,94,0.00,,,0.01,0.000000,,2013-05-15 10:32:00,
2013-05-15 03:33:00,47.0,46.0,-100.00,East,79,1.0,4.0,97,0.04,,,0.05,0.000000,,2013-05-15 10:33:00,
2013-05-15 03:52:00,47.0,46.0,-100.00,East,79,1.0,4.0,97,0.04,,,0.05,0.000000,,2013-05-15 10:52:00,
2013-05-15 04:15:00,47.0,46.0,-100.00,East,79,1.0,4.0,97,0.04,,,0.05,0.000000,,2013-05-15 11:15:00,
2013-05-15 04:24:00,47.0,46.0,-100.00,East,79,1.0,4.0,97,0.04,,,0.05,0.000000,,2013-05-15 11:24:00,
2013-05-15 04:33:00,47.0,46.0,-100.00,East,88,2.0,6.0,95,0.00,,,0.05,0.000000,,2013-05-15 11:33:00,
2013-05-15 05:06:00,47.0,46.0,-100.00,East,88,2.0,6.0,95,0.00,,,0.05,0.000000,,2013-05-15 12:06:00,
2013-05-15 05:13:00,47.0,46.0,-100.00,East,88,2.0,6.0,95,0.00,,,0.05,0.000000,,2013-05-15 12:13:00,
2013-05-15 05:33:00,47.0,45.0,-100.00,ENE,74,3.0,8.0,94,0.00,,,0.05,0.000000,,2013-05-15 12:33:00,
2013-05-15 05:56:00,47.0,45.0,-100.00,ENE,74,3.0,8.0,94,0.00,,,0.05,0.000000,,2013-05-15 12:56:00,
2013-05-15 06:06:00,47.0,45.0,-100.00,ENE,74,3.0,8.0,94,0.00,,,0.05,0.000000,,2013-05-15 13:06:00,
2013-05-15 06:14:00,47.0,45.0,-100.00,ENE,74,3.0,8.0,94,0.00,,,0.05,0.000000,,2013-05-15 13:14:00,
2013-05-15 06:24:00,47.0,45.0,-100.00,ENE,74,3.0,8.0,94,0.00,,,0.05,0.000000,,2013-05-15 13:24:00,
2013-05-15 06:33:00,48.0,46.0,-100.00,ENE,77,2.0,6.0,93,0.00,,,-99.99,16.000000,,2013-05-15 13:33:00,
2013-05-15 06:58:00,48.0,46.0,-100.00,ENE,77,2.0,6.0,93,0.00,,,-99.99,16.000000,,2013-05-15 13:58:00,
2013-05-15 07:04:00,48.0,46.0,-100.00,ENE,77,2.0,6.0,93,0.00,,,-99.99,16.000000,,2013-05-15 14:04:00,
2013-05-15 07:12:00,48.0,46.0,-100.00,ENE,77,2.0,6.0,93,0.00,,,-99.99,16.000000,,2013-05-15 14:12:00,
2013-05-15 07:24:00,48.0,46.0,-100.00,ENE,77,2.0,6.0,93,0.00,,,-99.99,16.000000,,2013-05-15 14:24:00,
2013-05-15 08:06:00,48.0,46.0,-100.00,NE,53,1.0,6.0,92,0.00,,,0.04,44.000000,,2013-05-15 15:06:00,
2013-05-15 08:13:00,48.0,46.0,-100.00,NE,53,1.0,6.0,92,0.00,,,0.04,44.000000,,2013-05-15 15:13:00,
2013-05-15 08:33:00,50.0,47.0,-100.00,NE,54,1.0,6.0,88,0.00,,,0.04,99.000000,,2013-05-15 15:33:00,
2013-05-15 08:59:00,50.0,47.0,-100.00,NE,54,1.0,6.0,88,0.00,,,0.04,99.000000,,2013-05-15 15:59:00,
2013-05-15 09:06:00,50.0,47.0,-100.00,NE,54,1.0,6.0,88,0.00,,,0.04,99.000000,,2013-05-15 16:06:00,
2013-05-15 09:17:00,50.0,47.0,-100.00,NE,54,1.0,6.0,88,0.00,,,0.04,99.000000,,2013-05-15 16:17:00,
2013-05-15 09:25:00,50.0,47.0,-100.00,NE,54,1.0,6.0,88,0.00,,,0.04,99.000000,,2013-05-15 16:25:00,
2013-05-15 09:58:00,53.0,47.0,-100.00,NNE,27,2.0,5.0,81,0.00,,,0.04,222.000000,,2013-05-15 16:58:00,
2013-05-15 10:07:00,53.0,47.0,-100.00,NNE,27,2.0,5.0,81,0.00,,,0.04,222.000000,,2013-05-15 17:07:00,
2013-05-15 10:15:00,53.0,47.0,-100.00,NNE,27,2.0,5.0,81,0.00,,,0.04,222.000000,,2013-05-15 17:15:00,
2013-05-15 10:25:00,53.0,47.0,-100.00,NNE,27,2.0,5.0,81,0.00,,,0.04,222.000000,,2013-05-15 17:25:00,
2013-05-15 10:32:00,53.0,47.0,-100.00,NNE,27,2.0,5.0,81,0.00,,,0.04,222.000000,,2013-05-15 17:32:00,
2013-05-15 10:33:00,58.0,46.0,-100.00,SE,126,1.0,5.0,65,0.00,,,0.04,445.000000,,2013-05-15 17:33:00,
2013-05-15 10:58:00,58.0,46.0,-100.00,SE,126,1.0,5.0,65,0.00,,,0.04,445.000000,,2013-05-15 17:58:00,
2013-05-15 11:04:00,58.0,46.0,-100.00,SE,126,1.0,5.0,65,0.00,,,0.04,445.000000,,2013-05-15 18:04:00,
2013-05-15 11:13:00,58.0,46.0,-100.00,SE,126,1.0,5.0,65,0.00,,,0.04,445.000000,,2013-05-15 18:13:00,
2013-05-15 11:25:00,58.0,46.0,-100.00,SE,126,1.0,5.0,65,0.00,,,0.04,445.000000,,2013-05-15 18:25:00,
2013-05-15 12:06:00,56.0,47.0,-100.00,West,273,2.0,7.0,73,0.00,,,0.04,389.000000,,2013-05-15 19:06:00,
2013-05-15 12:13:00,56.0,47.0,-100.00,West,273,2.0,7.0,73,0.00,,,0.04,389.000000,,2013-05-15 19:13:00,
2013-05-15 12:56:00,57.0,51.0,-100.00,NW,307,2.0,6.0,80,0.01,,,0.05,348.000000,,2013-05-15 19:56:00,
2013-05-15 13:05:00,57.0,51.0,-100.00,NW,307,2.0,6.0,80,0.01,,,0.05,348.000000,,2013-05-15 20:05:00,
2013-05-15 13:14:00,57.0,51.0,-100.00,NW,307,2.0,6.0,80,0.01,,,0.05,348.000000,,2013-05-15 20:14:00,
2013-05-15 13:23:00,57.0,51.0,-100.00,NW,307,2.0,6.0,80,0.01,,,0.05,348.000000,,2013-05-15 20:23:00,
2013-05-15 13:32:00,57.0,51.0,-100.00,NW,307,2.0,6.0,80,0.01,,,0.05,348.000000,,2013-05-15 20:32:00,
2013-05-15 13:33:00,58.0,49.0,-100.00,SW,216,2.0,9.0,73,0.00,,,0.05,313.000000,,2013-05-15 20:33:00,
2013-05-15 13:55:00,58.0,49.0,-100.00,SW,216,2.0,9.0,73,0.00,,,0.05,313.000000,,2013-05-15 20:55:00,
2013-05-15 14:05:00,58.0,49.0,-100.00,SW,216,2.0,9.0,73,0.00,,,0.05,313.000000,,2013-05-15 21:05:00,
2013-05-15 14:16:00,58.0,49.0,-100.00,SW,216,2.0,9.0,73,0.00,,,0.05,313.000000,,2013-05-15 21:16:00,
2013-05-15 14:26:00,58.0,49.0,-100.00,SW,216,2.0,9.0,73,0.00,,,0.05,313.000000,,2013-05-15 21:26:00,
2013-05-15 14:33:00,55.0,47.0,-100.00,SSE,156,3.0,10.0,73,0.00,,,0.05,335.000000,,2013-05-15 21:33:00,
2013-05-15 15:00:00,55.0,47.0,-100.00,SSE,156,3.0,10.0,73,0.00,,,0.05,335.000000,,2013-05-15 22:00:00,
2013-05-15 15:07:00,55.0,47.0,-100.00,SSE,156,3.0,10.0,73,0.00,,,0.05,335.000000,,2013-05-15 22:07:00,
2013-05-15 15:15:00,55.0,47.0,-100.00,SSE,156,3.0,10.0,73,0.00,,,0.05,335.000000,,2013-05-15 22:15:00,
2013-05-15 15:27:00,55.0,47.0,-100.00,SSE,156,3.0,10.0,73,0.00,,,0.05,335.000000,,2013-05-15 22:27:00,
2013-05-15 15:33:00,57.0,49.0,-100.00,SE,135,1.0,7.0,74,0.00,,,0.05,320.000000,,2013-05-15 22:33:00,
2013-05-15 15:59:00,57.0,49.0,-100.00,SE,135,1.0,7.0,74,0.00,,,0.05,320.000000,,2013-05-15 22:59:00,
2013-05-15 16:06:00,57.0,49.0,-100.00,SE,135,1.0,7.0,74,0.00,,,0.05,320.000000,,2013-05-15 23:06:00,
2013-05-15 16:24:00,57.0,49.0,-100.00,SE,135,1.0,7.0,74,0.00,,,0.05,320.000000,,2013-05-15 23:24:00,
2013-05-15 16:33:00,58.0,48.0,-100.00,ENE,69,1.0,7.0,70,0.00,,,0.05,462.000000,,2013-05-15 23:33:00,
2013-05-15 16:59:00,58.0,48.0,-100.00,ENE,69,1.0,7.0,70,0.00,,,0.05,462.000000,,2013-05-15 23:59:00,
2013-05-15 17:16:00,58.0,48.0,-100.00,ENE,69,1.0,7.0,70,0.00,,,0.05,462.000000,,2013-05-16 00:16:00,
2013-05-15 17:33:00,59.0,47.0,-100.00,SSE,166,3.0,7.0,64,0.00,,,-99.99,371.000000,,2013-05-16 00:33:00,
2013-05-15 17:58:00,59.0,47.0,-100.00,SSE,166,3.0,7.0,64,0.00,,,-99.99,371.000000,,2013-05-16 00:58:00,
2013-05-15 18:05:00,59.0,47.0,-100.00,SSE,166,3.0,7.0,64,0.00,,,-99.99,371.000000,,2013-05-16 01:05:00,
2013-05-15 18:14:00,59.0,47.0,-100.00,SSE,166,3.0,7.0,64,0.00,,,-99.99,371.000000,,2013-05-16 01:14:00,
2013-05-15 18:24:00,59.0,47.0,-100.00,SSE,166,3.0,7.0,64,0.00,,,-99.99,371.000000,,2013-05-16 01:24:00,
2013-05-15 18:33:00,56.0,49.0,-100.00,South,173,1.0,6.0,78,0.00,,,0.05,120.000000,,2013-05-16 01:33:00,
2013-05-15 18:59:00,56.0,49.0,-100.00,South,173,1.0,6.0,78,0.00,,,0.05,120.000000,,2013-05-16 01:59:00,
2013-05-15 19:05:00,56.0,49.0,-100.00,South,173,1.0,6.0,78,0.00,,,0.05,120.000000,,2013-05-16 02:05:00,
2013-05-15 19:13:00,56.0,49.0,-100.00,South,173,1.0,6.0,78,0.00,,,0.05,120.000000,,2013-05-16 02:13:00,
2013-05-15 19:26:00,56.0,49.0,-100.00,South,173,1.0,6.0,78,0.00,,,0.05,120.000000,,2013-05-16 02:26:00,
2013-05-15 19:33:00,54.0,52.0,-100.00,South,187,0.0,4.0,92,0.03,,,0.08,72.000000,,2013-05-16 02:33:00,
2013-05-15 20:04:00,54.0,52.0,-100.00,South,187,0.0,4.0,92,0.03,,,0.08,72.000000,,2013-05-16 03:04:00,
2013-05-15 20:14:00,54.0,52.0,-100.00,South,187,0.0,4.0,92,0.03,,,0.08,72.000000,,2013-05-16 03:14:00,
2013-05-15 20:24:00,54.0,52.0,-100.00,South,187,0.0,4.0,92,0.03,,,0.08,72.000000,,2013-05-16 03:24:00,
2013-05-15 20:33:00,53.0,52.0,-100.00,North,7,0.0,2.0,97,0.02,,,0.10,24.000000,,2013-05-16 03:33:00,
2013-05-15 21:02:00,53.0,52.0,-100.00,North,7,0.0,2.0,97,0.02,,,0.10,24.000000,,2013-05-16 04:02:00,
2013-05-15 21:12:00,53.0,52.0,-100.00,North,7,0.0,2.0,97,0.02,,,0.10,24.000000,,2013-05-16 04:12:00,
2013-05-15 21:23:00,53.0,52.0,-100.00,North,7,0.0,2.0,97,0.02,,,0.10,24.000000,,2013-05-16 04:23:00,
2013-05-15 21:53:00,53.0,52.0,-100.00,NNE,33,0.0,2.0,98,0.01,,,0.11,1.000000,,2013-05-16 04:53:00,
2013-05-15 22:02:00,53.0,52.0,-100.00,NNE,33,0.0,2.0,98,0.01,,,0.11,1.000000,,2013-05-16 05:02:00,
2013-05-15 22:12:00,53.0,52.0,-100.00,NNE,33,0.0,2.0,98,0.01,,,0.11,1.000000,,2013-05-16 05:12:00,
2013-05-15 22:22:00,53.0,52.0,-100.00,NNE,33,0.0,2.0,98,0.01,,,0.11,1.000000,,2013-05-16 05:22:00,
2013-05-15 22:32:00,53.0,52.0,-100.00,NNE,33,0.0,2.0,98,0.01,,,0.11,1.000000,,2013-05-16 05:32:00,
2013-05-15 22:33:00,52.0,51.0,-100.00,SE,125,0.0,3.0,98,0.01,,,-99.99,0.000000,,2013-05-16 05:33:00,
2013-05-15 22:52:00,52.0,51.0,-100.00,SE,125,0.0,3.0,98,0.01,,,-99.99,0.000000,,2013-05-16 05:52:00,
2013-05-15 23:01:00,52.0,51.0,-100.00,SE,125,0.0,3.0,98,0.01,,,-99.99,0.000000,,2013-05-16 06:01:00,
2013-05-15 23:12:00,52.0,51.0,-100.00,SE,125,0.0,3.0,98,0.01,,,-99.99,0.000000,,2013-05-16 06:12:00,
2013-05-15 23:22:00,52.0,51.0,-100.00,SE,125,0.0,3.0,98,0.01,,,-99.99,0.000000,,2013-05-16 06:22:00,
2013-05-15 23:33:00,52.0,52.0,-100.00,ENE,57,0.0,2.0,99,0.06,,,0.18,0.000000,,2013-05-16 06:33:00,
2013-05-15 23:53:00,52.0,52.0,-100.00,ENE,57,0.0,2.0,99,0.06,,,0.18,0.000000,,2013-05-16 06:53:00,